| time (UTC) | temp F | wind direction | speed MPH | gust MPH | rain 1hr in | rain 24hr in | rain mn in | humidity % | barometer mb |
| 20260507050126 | 50 | 330 | 0.0 | 0.0 | 0.00 | 0.00 | 0.00 | 88 | 1010.4 |
| 20260507045623 | 50 | 330 | 0.0 | 0.0 | 0.00 | 0.00 | 0.00 | 88 | 1010.4 |
| 20260507045119 | 50 | 330 | 0.0 | 0.0 | 0.00 | 0.00 | 0.00 | 88 | 1010.4 |
| 20260507042620 | 50 | 349 | 0.0 | 0.0 | 0.00 | 0.00 | 0.00 | 88 | 1010.4 |
| 20260507042115 | 50 | 349 | 0.0 | 0.0 | 0.00 | 0.00 | 0.00 | 88 | 1010.4 |
| 20260507041612 | 50 | 349 | 0.0 | 0.0 | 0.00 | 0.00 | 0.00 | 88 | 1010.4 |
| 20260507040120 | 51 | 42 | 1.0 | 1.0 | 0.00 | 0.31 | 0.31 | 85 | 1010.7 |
| 20260507035616 | 51 | 42 | 1.0 | 1.0 | 0.00 | 0.31 | 0.31 | 85 | 1010.7 |
| 20260507035112 | 51 | 42 | 1.0 | 1.0 | 0.00 | 0.31 | 0.31 | 85 | 1010.7 |
| 20260507034609 | 51 | 350 | 0.0 | 0.0 | 0.00 | 0.31 | 0.31 | 84 | 1010.9 |
| 20260507032605 | 51 | 39 | 0.0 | 1.0 | 0.00 | 0.31 | 0.31 | 82 | 1010.5 |
| 20260507032101 | 51 | 39 | 0.0 | 1.0 | 0.00 | 0.31 | 0.31 | 82 | 1010.5 |
| 20260507031557 | 51 | 39 | 0.0 | 1.0 | 0.00 | 0.31 | 0.31 | 82 | 1010.5 |
| 20260507030101 | 51 | 48 | 1.0 | 2.0 | 0.00 | 0.31 | 0.31 | 82 | 1010.4 |
| 20260507025558 | 51 | 48 | 1.0 | 2.0 | 0.00 | 0.31 | 0.31 | 82 | 1010.4 |
| 20260507025054 | 51 | 48 | 1.0 | 2.0 | 0.00 | 0.31 | 0.31 | 82 | 1010.4 |
| 20260507022557 | 52 | 45 | 0.0 | 1.0 | 0.00 | 0.31 | 0.31 | 81 | 1011.1 |
| 20260507022052 | 52 | 45 | 0.0 | 1.0 | 0.00 | 0.31 | 0.31 | 81 | 1011.1 |
| 20260507021548 | 52 | 45 | 0.0 | 1.0 | 0.00 | 0.31 | 0.31 | 81 | 1011.1 |
| 20260507020045 | 52 | 36 | 0.0 | 1.0 | 0.00 | 0.31 | 0.31 | 81 | 1011.3 |
| 20260507015543 | 52 | 36 | 0.0 | 1.0 | 0.00 | 0.31 | 0.31 | 81 | 1011.3 |
| 20260507015041 | 52 | 36 | 0.0 | 1.0 | 0.00 | 0.31 | 0.31 | 81 | 1011.3 |
| 20260507012542 | 52 | 31 | 2.0 | 3.0 | 0.00 | 0.31 | 0.31 | 81 | 1011.3 |
| 20260507012037 | 52 | 31 | 2.0 | 3.0 | 0.00 | 0.31 | 0.31 | 81 | 1011.3 |
| 20260507011535 | 52 | 31 | 2.0 | 3.0 | 0.00 | 0.31 | 0.31 | 81 | 1011.3 |
| 20260507010034 | 53 | 61 | 1.0 | 2.0 | 0.00 | 0.31 | 0.31 | 83 | 1010.6 |
| 20260507005532 | 53 | 61 | 1.0 | 2.0 | 0.00 | 0.31 | 0.31 | 83 | 1010.6 |
| 20260507005028 | 53 | 61 | 1.0 | 2.0 | 0.00 | 0.31 | 0.31 | 83 | 1010.6 |
| 20260507002534 | 53 | 17 | 1.0 | 1.0 | 0.00 | 0.31 | 0.31 | 81 | 1010.0 |
| 20260507002030 | 53 | 17 | 1.0 | 1.0 | 0.00 | 0.31 | 0.31 | 81 | 1010.0 |
| 20260507001526 | 53 | 17 | 1.0 | 1.0 | 0.00 | 0.31 | 0.31 | 81 | 1010.0 |
| 20260507000028 | 54 | 11 | 2.0 | 2.0 | 0.00 | 0.31 | 0.31 | 81 | 1009.5 |
| 20260506235525 | 54 | 11 | 2.0 | 2.0 | 0.00 | 0.31 | 0.31 | 81 | 1009.5 |
| 20260506235021 | 54 | 11 | 2.0 | 2.0 | 0.00 | 0.31 | 0.31 | 81 | 1009.5 |
| 20260506234518 | 54 | 64 | 1.0 | 6.0 | 0.00 | 0.31 | 0.31 | 80 | 1009.5 |
| 20260506232018 | 56 | 73 | 1.0 | 1.0 | 0.00 | 0.31 | 0.31 | 81 | 1008.9 |
| 20260506231516 | 56 | 73 | 1.0 | 1.0 | 0.00 | 0.31 | 0.31 | 81 | 1008.9 |
| 20260506231014 | 56 | 73 | 1.0 | 1.0 | 0.00 | 0.31 | 0.31 | 81 | 1008.9 |
| 20260506230014 | 57 | 235 | 3.0 | 3.0 | 0.00 | 0.31 | 0.31 | 79 | 1008.5 |
| 20260506225510 | 57 | 235 | 3.0 | 3.0 | 0.00 | 0.31 | 0.31 | 79 | 1008.5 |
| 20260506225006 | 57 | 235 | 3.0 | 3.0 | 0.00 | 0.31 | 0.31 | 79 | 1008.5 |
| 20260506222002 | 63 | 13 | 3.0 | 6.0 | 0.00 | 0.31 | 0.31 | 78 | 1007.0 |
| 20260506221459 | 63 | 13 | 3.0 | 6.0 | 0.00 | 0.31 | 0.31 | 78 | 1007.0 |
| 20260506220957 | 63 | 13 | 3.0 | 6.0 | 0.00 | 0.31 | 0.31 | 78 | 1007.0 |
| 20260506220000 | 66 | 131 | 3.0 | 6.0 | 0.00 | 0.31 | 0.31 | 81 | 1006.4 |
| 20260506215456 | 66 | 131 | 3.0 | 6.0 | 0.00 | 0.31 | 0.31 | 81 | 1006.4 |
| 20260506214952 | 66 | 131 | 3.0 | 6.0 | 0.00 | 0.31 | 0.31 | 81 | 1006.4 |
| 20260506211954 | 65 | 357 | 2.0 | 3.0 | 0.00 | 0.31 | 0.31 | 81 | 1005.9 |
| 20260506211451 | 65 | 357 | 2.0 | 3.0 | 0.00 | 0.31 | 0.31 | 81 | 1005.9 |
| 20260506210948 | 65 | 357 | 2.0 | 3.0 | 0.00 | 0.31 | 0.31 | 81 | 1005.9 |
| 20260506205953 | 67 | 355 | 1.0 | 2.0 | 0.00 | 0.31 | 0.31 | 80 | 1005.6 |
| 20260506205449 | 67 | 355 | 1.0 | 2.0 | 0.00 | 0.31 | 0.31 | 80 | 1005.6 |
| 20260506204945 | 67 | 355 | 1.0 | 2.0 | 0.00 | 0.31 | 0.31 | 80 | 1005.6 |
| 20260506201952 | 65 | 342 | 0.0 | 1.0 | 0.00 | 0.31 | 0.31 | 84 | 1005.6 |
| 20260506201450 | 65 | 342 | 0.0 | 1.0 | 0.00 | 0.31 | 0.31 | 84 | 1005.6 |
| 20260506200946 | 65 | 342 | 0.0 | 1.0 | 0.00 | 0.31 | 0.31 | 84 | 1005.6 |
| 20260506200442 | 66 | 342 | 2.0 | 8.0 | 0.00 | 0.31 | 0.31 | 81 | 1005.8 |
| 20260506195939 | 65 | 70 | 2.0 | 4.0 | 0.00 | 0.31 | 0.31 | 83 | 1005.5 |
| 20260506195436 | 65 | 70 | 2.0 | 4.0 | 0.00 | 0.31 | 0.31 | 83 | 1005.5 |
| 20260506194932 | 65 | 70 | 2.0 | 4.0 | 0.00 | 0.31 | 0.31 | 83 | 1005.5 |
| 20260506185925 | 65 | 226 | 1.0 | 2.0 | 0.00 | 0.31 | 0.31 | 86 | 1005.7 |
| 20260506185422 | 65 | 226 | 1.0 | 2.0 | 0.00 | 0.31 | 0.31 | 86 | 1005.7 |
| 20260506184918 | 65 | 226 | 1.0 | 2.0 | 0.00 | 0.31 | 0.31 | 86 | 1005.7 |
| 20260506175911 | 61 | 329 | 0.0 | 0.0 | 0.00 | 0.31 | 0.31 | 94 | 1006.6 |
| 20260506175408 | 61 | 329 | 0.0 | 0.0 | 0.00 | 0.31 | 0.31 | 94 | 1006.6 |
| 20260506174904 | 61 | 329 | 0.0 | 0.0 | 0.00 | 0.31 | 0.31 | 94 | 1006.6 |
| 20260506171408 | 60 | 331 | 0.0 | 1.0 | 0.07 | 0.29 | 0.29 | 93 | 1006.6 |
| 20260506170906 | 60 | 331 | 0.0 | 1.0 | 0.07 | 0.29 | 0.29 | 93 | 1006.6 |
| 20260506170402 | 60 | 331 | 0.0 | 1.0 | 0.07 | 0.29 | 0.29 | 93 | 1006.6 |
| 20260506165901 | 60 | 349 | 0.0 | 0.0 | 0.00 | 0.28 | 0.28 | 93 | 1006.7 |
| 20260506165359 | 60 | 349 | 0.0 | 0.0 | 0.00 | 0.28 | 0.28 | 93 | 1006.7 |
| 20260506164854 | 60 | 349 | 0.0 | 0.0 | 0.00 | 0.28 | 0.28 | 93 | 1006.7 |
| 20260506161349 | 60 | 331 | 0.0 | 1.0 | 0.07 | 0.28 | 0.28 | 92 | 1006.5 |
| 20260506160847 | 60 | 331 | 0.0 | 1.0 | 0.07 | 0.28 | 0.28 | 92 | 1006.5 |
| 20260506160343 | 60 | 331 | 0.0 | 1.0 | 0.07 | 0.28 | 0.28 | 92 | 1006.5 |
| 20260506151347 | 60 | 127 | 1.0 | 2.0 | 0.07 | 0.22 | 0.22 | 90 | 1007.0 |
| 20260506150844 | 60 | 127 | 1.0 | 2.0 | 0.07 | 0.22 | 0.22 | 90 | 1007.0 |
| 20260506150341 | 60 | 127 | 1.0 | 2.0 | 0.07 | 0.22 | 0.22 | 90 | 1007.0 |
| 20260506145837 | 61 | 357 | 0.0 | 1.0 | 0.05 | 0.19 | 0.19 | 90 | 1006.9 |
| 20260506145334 | 61 | 357 | 0.0 | 1.0 | 0.05 | 0.19 | 0.19 | 90 | 1006.9 |
| 20260506144831 | 61 | 357 | 0.0 | 1.0 | 0.05 | 0.19 | 0.19 | 90 | 1006.9 |
| 20260506141333 | 60 | 332 | 0.0 | 1.0 | 0.12 | 0.13 | 0.13 | 91 | 1006.9 |
| 20260506140830 | 60 | 332 | 0.0 | 1.0 | 0.12 | 0.13 | 0.13 | 91 | 1006.9 |
| 20260506140327 | 60 | 332 | 0.0 | 1.0 | 0.12 | 0.13 | 0.13 | 91 | 1006.9 |
| 20260506135824 | 60 | 252 | 0.0 | 1.0 | 0.07 | 0.11 | 0.11 | 91 | 1007.1 |
| 20260506135320 | 60 | 252 | 0.0 | 1.0 | 0.07 | 0.11 | 0.11 | 91 | 1007.1 |
| 20260506134817 | 60 | 333 | 0.0 | 1.0 | 0.05 | 0.10 | 0.10 | 90 | 1007.0 |
| 20260506131318 | 60 | 338 | 0.0 | 1.0 | 0.05 | 0.06 | 0.06 | 87 | 1007.4 |
| 20260506130816 | 60 | 338 | 0.0 | 1.0 | 0.05 | 0.06 | 0.06 | 87 | 1007.4 |
| 20260506130312 | 60 | 338 | 0.0 | 1.0 | 0.05 | 0.06 | 0.06 | 87 | 1007.4 |
| 20260506125810 | 60 | 351 | 0.0 | 2.0 | 0.07 | 0.05 | 0.05 | 87 | 1007.6 |
| 20260506125308 | 60 | 351 | 0.0 | 2.0 | 0.07 | 0.05 | 0.05 | 87 | 1007.6 |
| 20260506124806 | 61 | 319 | 0.0 | 1.0 | 0.07 | 0.04 | 0.04 | 85 | 1007.4 |
| 20260506121305 | 64 | 264 | 2.0 | 2.0 | 0.05 | 0.01 | 0.01 | 72 | 1007.2 |
| 20260506120802 | 64 | 264 | 2.0 | 2.0 | 0.05 | 0.01 | 0.01 | 72 | 1007.2 |
| 20260506120300 | 65 | 147 | 0.0 | 3.0 | 0.00 | 0.00 | 0.00 | 69 | 1007.1 |
| 20260506115757 | 65 | 147 | 0.0 | 3.0 | 0.00 | 0.00 | 0.00 | 69 | 1007.1 |
| 20260506115255 | 65 | 147 | 0.0 | 3.0 | 0.00 | 0.00 | 0.00 | 69 | 1007.1 |
| 20260506110252 | 66 | 38 | 0.0 | 1.0 | 0.00 | 0.00 | 0.00 | 60 | 1006.6 |
| 20260506105749 | 66 | 38 | 0.0 | 1.0 | 0.00 | 0.00 | 0.00 | 60 | 1006.6 |
| 20260506105245 | 66 | 38 | 0.0 | 1.0 | 0.00 | 0.00 | 0.00 | 60 | 1006.6 |
| 20260506103743 | 67 | 337 | 1.0 | 2.0 | 0.00 | 0.00 | 0.00 | 56 | 1006.1 |
| 20260506103241 | 67 | 337 | 1.0 | 2.0 | 0.00 | 0.00 | 0.00 | 56 | 1006.1 |
| 20260506102738 | 67 | 337 | 1.0 | 2.0 | 0.00 | 0.00 | 0.00 | 56 | 1006.1 |
| 20260506102236 | 68 | 78 | 1.0 | 2.0 | 0.00 | 0.00 | 0.00 | 56 | 1006.3 |
| 20260506100237 | 68 | 326 | 0.0 | 3.0 | 0.00 | 0.00 | 0.00 | 54 | 1006.2 |
| 20260506095735 | 68 | 326 | 0.0 | 3.0 | 0.00 | 0.00 | 0.00 | 54 | 1006.2 |
| 20260506095231 | 68 | 326 | 0.0 | 3.0 | 0.00 | 0.00 | 0.00 | 54 | 1006.2 |
| 20260506090229 | 66 | 355 | 0.0 | 0.0 | 0.00 | 0.00 | 0.00 | 55 | 1006.0 |
| 20260506085726 | 66 | 355 | 0.0 | 0.0 | 0.00 | 0.00 | 0.00 | 55 | 1006.0 |
| 20260506085223 | 66 | 355 | 0.0 | 0.0 | 0.00 | 0.00 | 0.00 | 55 | 1006.0 |
| 20260506084719 | 66 | 14 | 0.0 | 1.0 | 0.00 | 0.00 | 0.00 | 55 | 1006.3 |
| 20260506080215 | 66 | 321 | 1.0 | 3.0 | 0.00 | 0.00 | 0.00 | 53 | 1006.4 |
| 20260506071709 | 66 | 351 | 0.0 | 1.0 | 0.00 | 0.00 | 0.00 | 51 | 1006.4 |
| 20260506071207 | 66 | 351 | 0.0 | 1.0 | 0.00 | 0.00 | 0.00 | 51 | 1006.4 |
| 20260506070703 | 66 | 351 | 0.0 | 1.0 | 0.00 | 0.00 | 0.00 | 51 | 1006.4 |
| 20260506070201 | 66 | 329 | 1.0 | 3.0 | 0.00 | 0.00 | 0.00 | 50 | 1006.9 |
| 20260506061656 | 64 | 359 | 0.0 | 0.0 | 0.00 | 0.00 | 0.00 | 53 | 1006.9 |
| 20260506061154 | 64 | 359 | 0.0 | 0.0 | 0.00 | 0.00 | 0.00 | 53 | 1006.9 |
| 20260506060652 | 64 | 359 | 0.0 | 0.0 | 0.00 | 0.00 | 0.00 | 53 | 1006.9 |
| 20260506060149 | 64 | 342 | 0.0 | 0.0 | 0.00 | 0.00 | 0.00 | 53 | 1007.2 |